Terminal Aerodrome Forecast
Issued by NWS Atlanta, GA

Home | Current Version | Previous Version | Text Only | Print | Product List | Glossary On
Versions: 1 2 3 4 5 6 7 8 9 10 11 12 13 14 15 16 17 18 19 20 21 22 23 24 25 26 27 28 29 30
000
FTAK31 PAJN 301100
TAFAHN
TAF
PAHN 301120Z 3012/0112 09006KT P6SM OVC060
     FM301500 12008KT P6SM BKN050 BKN100
     FM302000 12010KT P6SM SCT020 OVC050
     FM010300 10011KT P6SM VCSH SCT015 BKN025 OVC040
      AMD LTD TO CLD VIS AND WIND=

USA.gov is the U.S. government's official web portal to all federal, state and local government web resources and services.